Probability
0 0 0 0 0 0 0 0 0 0 0 0 0 0 0 0 0 0 0 0 0 0 0 0 0 0 0 0 0 0 0 0 0 0 0 0 0 0 0 0 0 0 0
0 0 0 0 0 0 0 0 0 0 0 0 0 0 0 0 0 0 0 0 0 0 0 0 0 0 0 0 0 0 0 0 0 0 0 0 0 0 0 0 0 0 0
0 0 0 0 0 0 0 0 0 0 0 0 0 0 0 0 0 0 0 0 0 0 0 0 0 0 0 0 0 0 0 0 0 0 0 0 0 0 0 0 0 0 0
0 0 0 0 0 0 0 0 0 0 0 0 0 0 0 0 0 0 0 0 0 0 0 0 0 0 0 0 0 0 0 0 0 0 0 0 0 0 0 0 0 0 0
0 0 0 0 0 0 0 0 0 0 0 0 0 0 0 0 0 0 0 0 0 0 0 0 0 0 0 0 0 0 0 0 0 0 0 0 0 0 0 0 0 0 0
0 0 0 0 0 0 0 0 0 0 0 0 0 0 0 0 0 0 0 0 0 0 0 0 0 0 0 0 0 0 0 0 0 0 0 0 0 0 0 0 0 0 0
0 0 0 0 0 0 0 0 0 0 0 0 0 0 0 0 0 0 0 0 0 0 0 0 0 0 0 0 0 0 0 0 0 0 0 0 0 0 0 0 0 0 0
0 0 0 0 0 0 0 0 0 0 0 0 0 0 0 0 0 0 0 0 0 0 0 0 0 0 0 0 0 0 0 0 0 0 0 0 0 0 0 0 0 0 0
0 0 0 0 0 0 0 0 0 0 0 0 0 0 0 0 0 0 0 0 0 0 0 0 0 0 0 0 0 0 0 0 0 0 0 0 0 0 0 0 0 0 0
0 0 0 0 0 0 0 0 0 0 0 0 0 0 0 0 0 0 0 0 0 0 0 0 0 0 0 0 0 0 0 0 0 0 0 0 0 0 0 0 0 0 0
0 0 0 0 0 0 0 0 0 0 0 0 0 0 0 0 0 0 0 0 0 0 0 0 0 0 0 0 0 0 0 0 0 0 0 0 0 0 0 0 0 0 0
0 0 0 0 0 0 0 0 0 0 0 0 0 0 0 0 0 0 0 0 0 0 0 0 0 0 0 0 0 0 0 0 0 0 0 0 0 0 0 0 0 0 0
0 0 0 0 0 0 0 0 0 0 0 0 0 0 0 0 0 0 0 0 0 0 0 0 0 0 0 0 0 0 0 0 0 0 0 0 0 0 0 0 0 0 0
0 0 0 0 0 0 0 0 0 0 0 0 0 0 0 0 0 0 0 0 0 0 0 0 0 0 0 0 0 0 0 0 0 0 0 0 0 0 0 0 0 0 0
0 0 0 0 0 0 0 0 0 0 0 0 0 0 0 0 0 0 0 0 0 0 0 0 0 0 0 0 0 0 0 0 0 0 0 0 0 0 0 0 0 0 0
0 0 0 0 0 0 0 0 0 0 0 0 0 0 0 0 0 0 0 0 0 0 0 0 0 0 0 0 0 0 0 0 0 0 0 0 0 0 0 0 0 0 0
0 0 0 0 0 0 0 0 0 0 0 0 0 0 0 0 0 0 0 0 0 0 0 0 0 0 0 0 0 0 0 0 0 0 0 0 0 0 0 0 0 0 0
0 0 0 0 0 0 0 0 0 0 0 0 0 0 0 0 0 0 0 0 0 0 0 0 0 0 0 0 0 0 0 0 0 0 0 0 0 0 0 0 0 0 0
0 0 0 0 0 0 0 0 0 0 0 0 0 0 0 0 0 0 0 0 0 0 0 0 0 0 0 0 0 0 0 0 0 0 0 0 0 0 0 0 0 0 0
0 0 0 0 0 0 0 0 0 0 0 0 0 0 0 0 0 0 0 0 0 0 0 0 0 0 0 0 0 0 0 0 0 0 0 0 0 0 0 0 0 0 0
0 0 0 0 0 0 0 0 0 0 0 0 0 0 0 0 0 0 0 0 0 0 0 0 0 0 0 0 0 0 0 0 0 0 0 0 0 0 0 0 0 0 0
0 0 0 0 0 0 0 0 0 0 0 0 0 0 0 0 0 0 0 0 0 0 0 0 0 0 0 0 0 0 0 0 0 0 0 0 0 0 0 0 0 0 0
0 0 0 0 0 0 0 0 0 0 0 0 0 0 0 0 0 0 0 0 0 0 0 0 0 0 0 0 0 0 0 0 0 0 0 0 0 0 0 0 0 0 0
0 0 0 0 0 0 0 0 0 0 0 0 0 0 0 0 0 0 0 0 0 0 0 0 0 0 0 0 0 0 0 0 0 0 0 0 0 0 0 0 0 0 0
0 0 0 0 0 0 0 0 0 0 0 0 0 0 0 0 0 0 0 0 0 0 0 0 0 0 0 0 0 0 0 0 0 0 0 0 0 0 0 0 0 0 0
0 0 0 0 0 0 0 0 0 0 0 0 0 0 0 0 0 0 0 0 0 0 0 0 0 0 0 0 0 0 0 0 0 0 0 0 0 0 0 0 0 0 0
Wind_Speed
5 5 4 4 4 3 3 3 3 4 4 4 4 5 5 4 4 3 3 10 12 11 10 9 9 9 9 9 9 9 9 10 10 10 10 11 11 11 11 11 12 12 12
7 6 5 5 4 4 4 4 4 4 3 3 4 4 4 4 4 4 3 6 11 11 9 8 8 8 9 9 9 9 9 9 10 10 11 11 11 11 12 12 12 12 13
8 7 6 5 5 4 5 4 4 4 3 3 4 3 3 4 4 4 4 3 4 8 8 7 7 8 9 9 10 10 9 9 10 10 11 11 12 12 12 13 13 14 14
9 8 6 6 5 5 5 5 4 4 3 3 2 2 2 3 4 4 4 3 3 3 5 6 6 6 8 9 10 11 10 9 9 10 11 12 12 13 13 14 14 15 15
10 8 7 6 7 5 5 5 3 3 3 2 1 1 1 2 3 5 4 4 3 3 2 4 5 4 5 8 10 11 11 10 10 11 12 12 13 13 14 15 16 16 17
10 9 7 8 7 6 5 4 4 3 3 2 2 2 1 1 2 3 4 4 3 4 3 3 2 1 3 6 9 11 11 11 11 12 12 13 14 15 16 17 18 18 18
11 10 8 8 8 7 7 7 4 4 2 1 2 2 2 2 1 2 2 2 3 3 3 3 2 1 1 4 7 10 11 12 12 13 14 14 15 17 18 19 19 19 20
12 11 12 10 8 7 7 6 5 4 2 1 3 2 0 2 1 0 1 2 2 1 1 1 1 1 2 2 5 9 11 12 13 14 15 16 17 19 20 21 21 21 20
11 11 12 11 9 9 9 7 6 7 4 1 1 3 4 4 2 2 1 1 1 1 1 0 1 2 3 2 3 6 10 12 14 16 17 19 20 21 22 22 22 22 21
10 10 11 11 11 8 9 8 6 5 5 3 2 1 2 3 3 1 2 1 1 1 0 1 2 3 3 3 4 9 12 13 16 18 20 21 22 23 24 24 23 23 23
7 9 10 10 10 8 9 8 6 6 4 4 3 2 2 2 2 2 2 3 3 2 1 2 2 2 3 3 3 7 13 15 18 20 22 23 24 25 25 25 24 24 24
5 7 8 8 8 8 8 8 7 7 4 5 4 3 3 2 2 2 2 2 3 3 3 3 2 2 2 3 6 14 16 17 19 22 24 25 25 25 25 25 25 25 25
5 8 9 8 8 7 8 8 7 7 6 6 5 3 2 2 2 3 2 2 2 3 3 2 2 1 1 2 5 17 15 19 21 23 25 25 25 25 25 25 26 26 26
6 8 9 9 9 10 9 8 7 6 5 5 5 4 3 2 2 3 3 2 1 3 3 4 2 1 1 3 9 17 9 20 23 24 25 25 25 24 25 25 26 26 26
8 10 10 10 10 10 9 8 6 6 5 4 4 4 2 2 2 2 2 3 3 3 3 3 3 2 3 4 10 7 6 18 24 24 24 24 24 25 25 26 26 26 26
10 12 11 11 10 10 9 8 6 5 5 4 3 3 2 1 2 2 2 2 3 4 4 3 4 4 5 8 14 8 8 22 22 23 24 24 25 26 26 26 26 26 26
12 12 12 12 11 10 9 8 6 6 5 3 3 2 2 2 2 2 2 2 3 3 6 5 3 4 5 7 9 8 8 8 10 21 24 25 25 25 26 26 26 26 26
12 12 13 12 11 10 8 8 7 5 4 3 2 1 2 2 3 3 3 3 4 4 5 7 4 4 6 7 8 9 10 10 8 20 24 25 26 26 25 26 26 26 26
13 13 13 12 11 10 8 7 6 5 4 2 1 0 2 3 4 3 4 4 4 5 4 5 6 4 5 6 8 9 10 9 11 15 20 22 24 25 25 26 26 27 27
14 13 12 12 11 9 8 7 6 5 4 2 2 1 2 3 4 4 4 5 5 5 5 5 6 5 5 6 6 7 9 6 9 11 15 17 20 23 25 26 26 26 26
14 13 13 11 10 8 7 7 5 4 3 2 2 2 3 5 6 5 4 4 4 4 4 5 6 7 7 6 7 7 11 10 9 9 8 8 9 9 12 18 22 24 26
12 12 11 10 8 6 9 9 6 3 2 1 3 3 4 5 7 10 12 12 11 7 5 5 6 8 9 9 8 9 10 12 10 3 5 10 8 10 8 7 19 26 27
11 11 9 8 7 7 8 7 6 4 2 2 2 3 3 5 7 5 9 13 12 14 15 10 9 9 11 10 10 11 10 11 13 8 9 13 9 11 9 12 24 27 28
9 7 7 6 5 5 6 5 6 4 1 1 1 2 3 4 6 8 6 5 5 7 11 9 8 10 10 9 9 10 10 11 11 8 7 11 11 11 10 8 21 26 25
7 5 5 4 4 3 5 4 5 2 1 2 3 3 5 5 12 15 8 6 7 7 13 17 18 17 20 21 17 8 7 9 12 10 5 6 6 8 10 10 12 19 20
5 4 4 3 3 2 2 1 2 2 1 2 3 4 8 10 14 15 8 6 8 8 8 8 10 12 11 12 16 8 6 8 10 8 3 4 5 6 9 5 5 7 11
Wind_Direction
182 182 183 179 180 171 165 154 141 129 118 101 92 97 100 110 108 87 89 102 103 101 94 83 70 56 44 33 26 20 14 9 5 2 358 354 352 349 345 341 337 332 328
183 182 182 181 181 173 161 150 144 131 112 98 87 95 107 116 117 110 94 103 109 107 98 84 68 51 36 24 17 13 10 6 2 359 354 351 348 344 339 335 331 327 322
183 180 177 177 174 157 142 126 119 106 100 91 85 93 110 123 136 130 117 102 106 111 109 92 71 51 34 21 12 6 3 2 358 353 349 346 343 338 335 331 327 323 318
180 173 170 170 159 145 138 133 126 103 92 93 95 87 106 129 143 147 137 133 128 121 118 109 83 56 33 17 6 360 353 352 350 345 342 339 336 333 330 326 323 319 315
176 168 166 161 151 141 139 138 120 119 118 111 117 106 108 139 152 156 159 165 167 156 149 129 104 71 33 12 1 353 344 342 340 338 335 332 330 328 325 322 319 315 311
172 163 159 157 150 142 139 132 122 101 112 130 101 76 51 114 151 166 174 177 185 178 163 139 114 59 23 3 355 345 339 335 332 330 327 326 324 322 320 318 314 310 306
170 165 161 159 158 155 154 142 124 116 104 112 98 54 10 23 121 168 175 176 191 182 158 156 168 192 315 340 344 337 332 326 323 321 320 319 318 317 316 313 310 306 303
173 170 165 166 162 150 148 149 137 127 118 114 135 124 51 334 327 61 181 186 184 147 147 159 210 246 266 284 302 324 324 318 315 314 313 314 315 314 312 309 306 303 301
175 171 170 164 164 161 165 163 150 143 145 122 121 149 158 211 257 323 359 88 145 131 101 7 312 299 289 281 286 304 309 309 308 307 309 311 312 311 309 306 304 302 301
174 170 168 165 165 162 161 163 151 145 138 144 123 84 120 144 157 260 324 1 25 131 106 331 328 321 319 312 311 314 313 309 306 306 308 309 309 308 306 304 303 302 301
165 165 165 164 162 158 155 150 143 141 135 142 147 139 114 79 100 150 255 314 330 306 296 305 320 332 336 345 334 326 324 316 311 310 309 308 308 306 305 304 304 303 302
153 159 159 157 155 151 148 143 135 131 123 122 120 123 136 142 162 158 208 260 285 291 298 300 313 338 353 14 349 338 329 321 316 312 308 306 305 305 305 305 304 301 299
166 166 157 150 146 139 134 130 127 123 123 125 125 119 118 129 138 141 160 228 270 290 302 301 267 323 23 0 332 330 324 319 314 310 306 305 305 306 305 303 300 298 296
156 151 145 141 138 134 133 126 122 119 120 125 125 123 122 134 137 148 161 165 278 293 284 274 291 279 324 323 317 323 315 314 310 306 304 305 305 303 301 299 298 296 295
137 139 138 136 132 130 129 124 120 119 125 121 125 129 134 147 140 150 156 160 180 260 275 265 282 287 306 305 307 306 296 306 306 306 305 303 302 302 300 298 297 295 294
140 139 135 131 126 123 121 114 116 119 120 119 126 136 144 161 165 170 175 181 182 204 250 252 250 271 294 303 307 309 296 306 307 304 302 302 301 300 299 298 297 296 294
139 138 134 130 126 122 120 119 121 126 127 124 124 152 191 193 196 199 195 200 208 204 252 265 249 271 280 286 296 292 290 286 289 299 302 301 300 300 300 299 297 296 295
133 131 129 125 122 119 119 122 123 125 126 128 133 159 226 227 223 220 216 224 229 224 239 274 275 271 271 278 283 286 296 294 289 297 299 300 300 300 299 298 297 297 297
126 124 122 120 118 115 111 109 110 107 103 102 99 215 259 245 246 240 235 239 243 250 242 265 282 272 273 281 286 285 285 283 287 293 298 298 297 297 297 298 299 299 297
119 116 112 110 109 108 106 104 101 95 84 63 32 321 280 255 249 247 245 246 248 258 262 268 280 284 282 281 281 292 298 283 286 290 289 291 293 297 296 296 296 295 294
109 108 106 103 102 103 105 105 100 93 77 34 348 322 305 296 279 273 263 249 241 248 260 268 282 292 294 298 297 295 299 298 286 277 276 280 284 281 284 289 292 290 289
101 102 103 104 103 107 116 114 112 103 85 18 340 334 325 322 317 323 314 304 296 287 284 277 285 291 294 292 292 294 298 302 300 276 288 293 284 284 281 272 285 290 291
99 98 100 107 112 122 126 123 113 115 84 26 354 343 343 337 343 306 300 303 302 300 298 296 289 286 288 290 289 291 290 292 294 297 297 293 288 286 282 285 293 293 293
98 102 111 117 120 139 145 136 119 116 102 3 321 310 304 303 306 303 282 279 271 276 285 285 270 272 276 278 275 288 293 294 287 281 274 284 288 286 288 282 288 288 290
104 108 113 125 135 154 161 149 133 150 206 299 303 311 319 302 307 314 312 294 286 281 293 296 295 297 301 305 306 302 299 300 298 294 270 265 279 293 288 277 275 283 289
111 113 105 106 124 144 166 83 94 163 289 310 311 309 321 319 314 318 311 297 295 291 288 296 300 301 298 294 300 292 280 287 293 294 261 264 284 306 299 260 250 269 282